Year,Month,Day,Hour,Minute,Value (Times are PST for temperature in C)
2018,04,26,00,00,10.90
2018,04,26,00,01,10.90
2018,04,26,00,02,10.90
2018,04,26,00,03,10.90
2018,04,26,00,04,10.90
2018,04,26,00,05,10.90
2018,04,26,00,06,10.90
2018,04,26,00,07,10.90
2018,04,26,00,08,10.90
2018,04,26,00,09,10.90
2018,04,26,00,10,10.90
2018,04,26,00,11,10.90
2018,04,26,00,12,10.90
2018,04,26,00,13,10.90
2018,04,26,00,14,10.90
2018,04,26,00,15,10.90
2018,04,26,00,16,11.00
2018,04,26,00,17,11.00
2018,04,26,00,18,11.00
2018,04,26,00,19,11.10
2018,04,26,00,20,11.10
2018,04,26,00,21,11.10
2018,04,26,00,22,11.20
2018,04,26,00,23,11.20
2018,04,26,00,24,11.20
2018,04,26,00,25,11.20
2018,04,26,00,26,11.30
2018,04,26,00,27,11.30
2018,04,26,00,28,11.30
2018,04,26,00,29,11.30
2018,04,26,00,30,11.30
2018,04,26,00,31,11.30
2018,04,26,00,32,11.30
2018,04,26,00,33,11.20
2018,04,26,00,34,11.20
2018,04,26,00,35,11.20
2018,04,26,00,36,11.20
2018,04,26,00,37,11.20
2018,04,26,00,38,11.20
2018,04,26,00,39,11.20
2018,04,26,00,40,11.20
2018,04,26,00,41,11.20
2018,04,26,00,42,11.20
2018,04,26,00,43,11.20
2018,04,26,00,44,11.20
2018,04,26,00,45,11.20
2018,04,26,00,46,11.20
2018,04,26,00,47,11.20
2018,04,26,00,48,11.20
2018,04,26,00,49,11.10
2018,04,26,00,50,11.00
2018,04,26,00,51,10.80
2018,04,26,00,52,10.60
2018,04,26,00,53,10.30
2018,04,26,00,54,10.10
2018,04,26,00,55,10.00
2018,04,26,00,56,9.80
2018,04,26,00,57,9.70
2018,04,26,00,58,9.50
2018,04,26,00,59,9.50
2018,04,26,01,00,9.40
2018,04,26,01,01,9.40
2018,04,26,01,02,9.30
2018,04,26,01,03,9.30
2018,04,26,01,04,9.30
2018,04,26,01,05,9.20
2018,04,26,01,06,9.20
2018,04,26,01,07,9.20
2018,04,26,01,08,9.20
2018,04,26,01,09,9.20
2018,04,26,01,10,9.20
2018,04,26,01,11,9.20
2018,04,26,01,12,9.20
2018,04,26,01,13,9.10
2018,04,26,01,14,9.10
2018,04,26,01,15,9.10
2018,04,26,01,16,9.10
2018,04,26,01,17,9.10
2018,04,26,01,18,9.10
2018,04,26,01,19,9.10
2018,04,26,01,20,9.10
2018,04,26,01,21,9.00
2018,04,26,01,22,9.00
2018,04,26,01,23,9.00
2018,04,26,01,24,9.00
2018,04,26,01,25,9.00
2018,04,26,01,26,9.00
2018,04,26,01,27,9.00
2018,04,26,01,28,9.00
2018,04,26,01,29,9.00
2018,04,26,01,30,9.00
2018,04,26,01,31,9.00
2018,04,26,01,32,9.00
2018,04,26,01,33,8.90
2018,04,26,01,34,8.90
2018,04,26,01,35,8.90
2018,04,26,01,36,8.90
2018,04,26,01,37,9.00
2018,04,26,01,38,9.00
2018,04,26,01,39,9.00
2018,04,26,01,40,8.90
2018,04,26,01,41,8.80
2018,04,26,01,42,8.70
2018,04,26,01,43,8.60
2018,04,26,01,44,8.40
2018,04,26,01,45,8.30
2018,04,26,01,46,8.10
2018,04,26,01,47,8.00
2018,04,26,01,48,7.90
2018,04,26,01,49,7.80
2018,04,26,01,50,7.70
2018,04,26,01,51,7.60
2018,04,26,01,52,7.60
2018,04,26,01,53,7.50
2018,04,26,01,54,7.50
2018,04,26,01,55,7.40
2018,04,26,01,56,7.40
2018,04,26,01,57,7.40
2018,04,26,01,58,7.40
2018,04,26,01,59,7.40
2018,04,26,02,00,7.40
2018,04,26,02,01,7.40
2018,04,26,02,02,7.40
2018,04,26,02,03,7.40
2018,04,26,02,04,7.40
2018,04,26,02,05,7.40
2018,04,26,02,06,7.40
2018,04,26,02,07,7.40
2018,04,26,02,08,7.30
2018,04,26,02,09,7.30
2018,04,26,02,10,7.30
2018,04,26,02,11,7.30
2018,04,26,02,12,7.40
2018,04,26,02,13,7.40
2018,04,26,02,14,7.40
2018,04,26,02,15,7.40
2018,04,26,02,16,7.40
2018,04,26,02,17,7.50
2018,04,26,02,18,7.50
2018,04,26,02,19,7.50
2018,04,26,02,20,7.50
2018,04,26,02,21,7.60
2018,04,26,02,22,7.60
2018,04,26,02,23,7.60
2018,04,26,02,24,7.60
2018,04,26,02,25,7.60
2018,04,26,02,26,7.70
2018,04,26,02,27,7.70
2018,04,26,02,28,7.70
2018,04,26,02,29,7.70
2018,04,26,02,30,7.70
2018,04,26,02,31,7.70
2018,04,26,02,32,7.70
2018,04,26,02,33,7.70
2018,04,26,02,34,7.70
2018,04,26,02,35,7.70
2018,04,26,02,36,7.70
2018,04,26,02,37,7.60
2018,04,26,02,38,7.60
2018,04,26,02,39,7.60
2018,04,26,02,40,7.50
2018,04,26,02,41,7.50
2018,04,26,02,42,7.50
2018,04,26,02,43,7.50
2018,04,26,02,44,7.50
2018,04,26,02,45,7.50
2018,04,26,02,46,7.60
2018,04,26,02,47,7.60
2018,04,26,02,48,7.60
2018,04,26,02,49,7.60
2018,04,26,02,50,7.60
2018,04,26,02,51,7.60
2018,04,26,02,52,7.70
2018,04,26,02,53,7.70
2018,04,26,02,54,7.70
2018,04,26,02,55,7.70
2018,04,26,02,56,7.70
2018,04,26,02,57,7.80
2018,04,26,02,58,7.80
2018,04,26,02,59,7.80
2018,04,26,03,00,7.80
2018,04,26,03,01,7.90
2018,04,26,03,02,7.90
2018,04,26,03,03,8.00
2018,04,26,03,04,8.00
2018,04,26,03,05,8.10
2018,04,26,03,06,8.10
2018,04,26,03,07,8.10
2018,04,26,03,08,8.20
2018,04,26,03,09,8.20
2018,04,26,03,10,8.20
2018,04,26,03,11,8.20
2018,04,26,03,12,8.20
2018,04,26,03,13,8.20
2018,04,26,03,14,8.20
2018,04,26,03,15,8.20
2018,04,26,03,16,8.20
2018,04,26,03,17,8.20
2018,04,26,03,18,8.30
2018,04,26,03,19,8.30
2018,04,26,03,20,8.20
2018,04,26,03,21,8.20
2018,04,26,03,22,8.30
2018,04,26,03,23,8.20
2018,04,26,03,24,8.20
2018,04,26,03,25,8.30
2018,04,26,03,26,8.30
2018,04,26,03,27,8.30
2018,04,26,03,28,8.30
2018,04,26,03,29,8.30
2018,04,26,03,30,8.30
2018,04,26,03,31,8.30
2018,04,26,03,32,8.40
2018,04,26,03,33,8.40
2018,04,26,03,34,8.40
2018,04,26,03,35,8.50
2018,04,26,03,36,8.50
2018,04,26,03,37,8.60
2018,04,26,03,38,8.60
2018,04,26,03,39,8.60
2018,04,26,03,40,8.70
2018,04,26,03,41,8.70
2018,04,26,03,42,8.70
2018,04,26,03,43,8.70
2018,04,26,03,44,8.70
2018,04,26,03,45,8.70
2018,04,26,03,46,8.80
2018,04,26,03,47,8.80
2018,04,26,03,48,8.80
2018,04,26,03,49,8.80
2018,04,26,03,50,8.80
2018,04,26,03,51,8.80
2018,04,26,03,52,8.80
2018,04,26,03,53,8.80
2018,04,26,03,54,8.80
2018,04,26,03,55,8.80
2018,04,26,03,56,8.80
2018,04,26,03,57,8.80
2018,04,26,03,58,8.80
2018,04,26,03,59,8.80
2018,04,26,04,00,8.80
2018,04,26,04,01,8.70
2018,04,26,04,02,8.70
2018,04,26,04,03,8.70
2018,04,26,04,04,8.70
2018,04,26,04,05,8.70
2018,04,26,04,06,8.70
2018,04,26,04,07,8.80
2018,04,26,04,08,8.80
2018,04,26,04,09,8.80
2018,04,26,04,10,8.80
2018,04,26,04,11,8.90
2018,04,26,04,12,8.90
2018,04,26,04,13,9.00
2018,04,26,04,14,9.20
2018,04,26,04,15,9.30
2018,04,26,04,16,9.50
2018,04,26,04,17,9.60
2018,04,26,04,18,9.80
2018,04,26,04,19,10.00
2018,04,26,04,20,10.10
2018,04,26,04,21,10.20
2018,04,26,04,22,10.40
2018,04,26,04,23,10.50
2018,04,26,04,24,10.50
2018,04,26,04,25,10.60
2018,04,26,04,26,10.60
2018,04,26,04,27,10.60
2018,04,26,04,28,10.70
2018,04,26,04,29,10.80
2018,04,26,04,30,10.90
2018,04,26,04,31,11.00
2018,04,26,04,32,11.10
2018,04,26,04,33,11.20
2018,04,26,04,34,11.30
2018,04,26,04,35,11.40
2018,04,26,04,36,11.40
2018,04,26,04,37,11.40
2018,04,26,04,38,11.50
2018,04,26,04,39,11.50
2018,04,26,04,40,11.60
2018,04,26,04,41,11.60
2018,04,26,04,42,11.60
2018,04,26,04,43,11.60
2018,04,26,04,44,11.60
2018,04,26,04,45,11.60
2018,04,26,04,46,11.60
2018,04,26,04,47,11.70
2018,04,26,04,48,11.70
2018,04,26,04,49,11.70
2018,04,26,04,50,11.70
2018,04,26,04,51,11.80
2018,04,26,04,52,11.80
2018,04,26,04,53,11.80
2018,04,26,04,54,11.80
2018,04,26,04,55,11.80
2018,04,26,04,56,11.80
2018,04,26,04,57,11.80
2018,04,26,04,58,11.80
2018,04,26,04,59,11.80
2018,04,26,05,00,11.80
2018,04,26,05,01,11.80
2018,04,26,05,02,11.80
2018,04,26,05,03,11.80
2018,04,26,05,04,11.80
2018,04,26,05,05,11.80
2018,04,26,05,06,11.70
2018,04,26,05,07,11.70
2018,04,26,05,08,11.70
2018,04,26,05,09,11.70
2018,04,26,05,10,11.80
2018,04,26,05,11,11.80
2018,04,26,05,12,11.90
2018,04,26,05,13,11.90
2018,04,26,05,14,11.90
2018,04,26,05,15,11.90
2018,04,26,05,16,11.90
2018,04,26,05,17,11.80
2018,04,26,05,18,11.80
2018,04,26,05,19,11.80
2018,04,26,05,20,11.80
2018,04,26,05,21,11.80
2018,04,26,05,22,11.80
2018,04,26,05,23,11.90
2018,04,26,05,24,11.90
2018,04,26,05,25,11.90
2018,04,26,05,26,11.90
2018,04,26,05,27,12.00
2018,04,26,05,28,12.00
2018,04,26,05,29,12.00
2018,04,26,05,30,12.10
2018,04,26,05,31,12.10
2018,04,26,05,32,12.10
2018,04,26,05,33,12.10
2018,04,26,05,34,12.10
2018,04,26,05,35,12.10
2018,04,26,05,36,12.10
2018,04,26,05,37,12.10
2018,04,26,05,38,12.10
2018,04,26,05,39,12.10
2018,04,26,05,40,12.10
2018,04,26,05,41,12.20
2018,04,26,05,42,12.20
2018,04,26,05,43,12.20
2018,04,26,05,44,12.20
2018,04,26,05,45,12.30
2018,04,26,05,46,12.30
2018,04,26,05,47,12.30
2018,04,26,05,48,12.30
2018,04,26,05,49,12.40
2018,04,26,05,50,12.40
2018,04,26,05,51,12.40
2018,04,26,05,52,12.40
2018,04,26,05,53,12.40
2018,04,26,05,54,12.40
2018,04,26,05,55,12.40
2018,04,26,05,56,12.40
2018,04,26,05,57,12.30
2018,04,26,05,58,12.30
2018,04,26,05,59,12.20
2018,04,26,06,00,12.20
2018,04,26,06,01,12.10
2018,04,26,06,02,12.10
2018,04,26,06,03,12.00
2018,04,26,06,04,11.90
2018,04,26,06,05,11.90
2018,04,26,06,06,11.80
2018,04,26,06,07,11.80
2018,04,26,06,08,11.70
2018,04,26,06,09,11.70
2018,04,26,06,10,11.60
2018,04,26,06,11,11.50
2018,04,26,06,12,11.50
2018,04,26,06,13,11.40
2018,04,26,06,14,11.40
2018,04,26,06,15,11.40
2018,04,26,06,16,11.40
2018,04,26,06,17,11.40
2018,04,26,06,18,11.50
2018,04,26,06,19,11.50
2018,04,26,06,20,11.50
2018,04,26,06,21,11.60
2018,04,26,06,22,11.60
2018,04,26,06,23,11.60
2018,04,26,06,24,11.60
2018,04,26,06,25,11.60
2018,04,26,06,26,11.60
2018,04,26,06,27,11.60
2018,04,26,06,28,11.60
2018,04,26,06,29,11.50
2018,04,26,06,30,11.50
2018,04,26,06,31,11.40
2018,04,26,06,32,11.30
2018,04,26,06,33,11.20
2018,04,26,06,34,11.10
2018,04,26,06,35,11.00
2018,04,26,06,36,10.90
2018,04,26,06,37,10.80
2018,04,26,06,38,10.70
2018,04,26,06,39,10.70
2018,04,26,06,40,10.60
2018,04,26,06,41,10.60
2018,04,26,06,42,10.50
2018,04,26,06,43,10.50
2018,04,26,06,44,10.50
2018,04,26,06,45,10.50
2018,04,26,06,46,10.50
2018,04,26,06,47,10.50
2018,04,26,06,48,10.50
2018,04,26,06,49,10.50
2018,04,26,06,50,10.60
2018,04,26,06,51,10.60
2018,04,26,06,52,10.60
2018,04,26,06,53,10.60
2018,04,26,06,54,10.70
2018,04,26,06,55,10.70
2018,04,26,06,56,10.80
2018,04,26,06,57,10.80
2018,04,26,06,58,10.80
2018,04,26,06,59,10.90
2018,04,26,07,00,10.90
2018,04,26,07,01,11.00
2018,04,26,07,02,11.10
2018,04,26,07,03,11.30
2018,04,26,07,04,11.40
2018,04,26,07,05,11.50
2018,04,26,07,06,11.60
2018,04,26,07,07,11.60
2018,04,26,07,08,11.70
2018,04,26,07,09,11.80
2018,04,26,07,10,11.90
2018,04,26,07,11,11.90
2018,04,26,07,12,12.00
2018,04,26,07,13,12.10
2018,04,26,07,14,12.20
2018,04,26,07,15,12.30
2018,04,26,07,16,12.40
2018,04,26,07,17,12.50
2018,04,26,07,18,12.50
2018,04,26,07,19,12.60
2018,04,26,07,20,12.60
2018,04,26,07,21,12.60
2018,04,26,07,22,12.60
2018,04,26,07,23,12.60
2018,04,26,07,24,12.60
2018,04,26,07,25,12.60
2018,04,26,07,26,12.60
2018,04,26,07,27,12.50
2018,04,26,07,28,12.50
2018,04,26,07,29,12.50
2018,04,26,07,30,12.50
2018,04,26,07,31,12.50
2018,04,26,07,32,12.50
2018,04,26,07,33,12.50
2018,04,26,07,34,12.60
2018,04,26,07,35,12.60
2018,04,26,07,36,12.60
2018,04,26,07,37,12.60
2018,04,26,07,38,12.70
2018,04,26,07,39,12.70
2018,04,26,07,40,12.70
2018,04,26,07,41,12.70
2018,04,26,07,42,12.70
2018,04,26,07,43,12.70
2018,04,26,07,44,12.70
2018,04,26,07,45,12.80
2018,04,26,07,46,12.90
2018,04,26,07,47,13.00
2018,04,26,07,48,13.10
2018,04,26,07,49,13.20
2018,04,26,07,50,13.40
2018,04,26,07,51,13.50
2018,04,26,07,52,13.70
2018,04,26,07,53,13.80
2018,04,26,07,54,14.00
2018,04,26,07,55,14.10
2018,04,26,07,56,14.30
2018,04,26,07,57,14.40
2018,04,26,07,58,14.60
2018,04,26,07,59,14.70
2018,04,26,08,00,14.70
2018,04,26,08,01,14.80
2018,04,26,08,02,14.80
2018,04,26,08,03,14.80
2018,04,26,08,04,14.90
2018,04,26,08,05,14.90
2018,04,26,08,06,14.90
2018,04,26,08,07,15.00
2018,04,26,08,08,15.00
2018,04,26,08,09,15.10
2018,04,26,08,10,15.10
2018,04,26,08,11,15.20
2018,04,26,08,12,15.20
2018,04,26,08,13,15.30
2018,04,26,08,14,15.30
2018,04,26,08,15,15.30
2018,04,26,08,16,15.30
2018,04,26,08,17,15.30
2018,04,26,08,18,15.30
2018,04,26,08,19,15.40
2018,04,26,08,20,15.40
2018,04,26,08,21,15.40
2018,04,26,08,22,15.40
2018,04,26,08,23,15.40
2018,04,26,08,24,15.30
2018,04,26,08,25,15.30
2018,04,26,08,26,15.30
2018,04,26,08,27,15.30
2018,04,26,08,28,15.20
2018,04,26,08,29,15.10
2018,04,26,08,30,15.10
2018,04,26,08,31,15.00
2018,04,26,08,32,15.00
2018,04,26,08,33,15.00
2018,04,26,08,34,14.90
2018,04,26,08,35,14.90
2018,04,26,08,36,14.80
2018,04,26,08,37,14.80
2018,04,26,08,38,14.80
2018,04,26,08,39,14.80
2018,04,26,08,40,14.80
2018,04,26,08,41,14.80
2018,04,26,08,42,14.80
2018,04,26,08,43,14.90
2018,04,26,08,44,15.00
2018,04,26,08,45,15.00
2018,04,26,08,46,15.10
2018,04,26,08,47,15.20
2018,04,26,08,48,15.30
2018,04,26,08,49,15.30
2018,04,26,08,50,15.30
2018,04,26,08,51,15.30
2018,04,26,08,52,15.40
2018,04,26,08,53,15.40
2018,04,26,08,54,15.40
2018,04,26,08,55,15.40
2018,04,26,08,56,15.40
2018,04,26,08,57,15.50
2018,04,26,08,58,15.60
2018,04,26,08,59,15.70
2018,04,26,09,00,15.70
2018,04,26,09,01,15.80
2018,04,26,09,02,15.80
2018,04,26,09,03,15.80
2018,04,26,09,04,15.80
2018,04,26,09,05,15.80
2018,04,26,09,06,15.80
2018,04,26,09,07,15.80
2018,04,26,09,08,15.80
2018,04,26,09,09,15.90
2018,04,26,09,10,15.90
2018,04,26,09,11,16.00
2018,04,26,09,12,16.10
2018,04,26,09,13,16.10
2018,04,26,09,14,16.20
2018,04,26,09,15,16.20
2018,04,26,09,16,16.20
2018,04,26,09,17,16.20
2018,04,26,09,18,16.20
2018,04,26,09,19,16.20
2018,04,26,09,20,16.20
2018,04,26,09,21,16.20
2018,04,26,09,22,16.20
2018,04,26,09,23,16.30
2018,04,26,09,24,16.30
2018,04,26,09,25,16.30
2018,04,26,09,26,16.20
2018,04,26,09,27,16.20
2018,04,26,09,28,16.30
2018,04,26,09,29,16.40
2018,04,26,09,30,16.50
2018,04,26,09,31,16.50
2018,04,26,09,32,16.60
2018,04,26,09,33,16.70
2018,04,26,09,34,16.80
2018,04,26,09,35,16.90
2018,04,26,09,36,16.90
2018,04,26,09,37,16.90
2018,04,26,09,38,16.90
2018,04,26,09,39,17.00
2018,04,26,09,40,17.10
2018,04,26,09,41,17.10
2018,04,26,09,42,17.10
2018,04,26,09,43,17.20
2018,04,26,09,44,17.30
2018,04,26,09,45,17.20
2018,04,26,09,46,17.20
2018,04,26,09,47,17.20
2018,04,26,09,48,17.20
2018,04,26,09,49,17.30
2018,04,26,09,50,17.30
2018,04,26,09,51,17.40
2018,04,26,09,52,17.30
2018,04,26,09,53,17.40
2018,04,26,09,54,17.40
2018,04,26,09,55,17.40
2018,04,26,09,56,17.40
2018,04,26,09,57,17.40
2018,04,26,09,58,17.30
2018,04,26,09,59,17.30
2018,04,26,10,00,17.20
2018,04,26,10,01,17.20
2018,04,26,10,02,17.10
2018,04,26,10,03,17.10
2018,04,26,10,04,17.10
2018,04,26,10,05,17.00
2018,04,26,10,06,17.00
2018,04,26,10,07,17.00
2018,04,26,10,08,17.00
2018,04,26,10,09,17.10
2018,04,26,10,10,17.10
2018,04,26,10,11,17.10
2018,04,26,10,12,17.00
2018,04,26,10,13,17.00
2018,04,26,10,14,17.00
2018,04,26,10,15,17.00
2018,04,26,10,16,16.90
2018,04,26,10,17,16.80
2018,04,26,10,18,16.80
2018,04,26,10,19,16.80
2018,04,26,10,20,16.70
2018,04,26,10,21,16.70
2018,04,26,10,22,16.80
2018,04,26,10,23,16.80
2018,04,26,10,24,16.90
2018,04,26,10,25,16.90
2018,04,26,10,26,16.90
2018,04,26,10,27,16.90
2018,04,26,10,28,17.00
2018,04,26,10,29,17.00
2018,04,26,10,30,17.10
2018,04,26,10,31,17.20
2018,04,26,10,32,17.20
2018,04,26,10,33,17.20
2018,04,26,10,34,17.20
2018,04,26,10,35,17.20
2018,04,26,10,36,17.20
2018,04,26,10,37,17.30
2018,04,26,10,38,17.30
2018,04,26,10,39,17.30
2018,04,26,10,40,17.30
2018,04,26,10,41,17.40
2018,04,26,10,42,17.40
2018,04,26,10,43,17.50
2018,04,26,10,44,17.50
2018,04,26,10,45,17.60
2018,04,26,10,46,17.60
2018,04,26,10,47,17.70
2018,04,26,10,48,17.60
2018,04,26,10,49,17.60
2018,04,26,10,50,17.60
2018,04,26,10,51,17.60
2018,04,26,10,52,17.70
2018,04,26,10,53,17.80
2018,04,26,10,54,17.90
2018,04,26,10,55,18.00
2018,04,26,10,56,18.10
2018,04,26,10,57,18.20
2018,04,26,10,58,18.20
2018,04,26,10,59,18.20
2018,04,26,11,00,18.10
2018,04,26,11,01,18.10
2018,04,26,11,02,18.10
2018,04,26,11,03,18.10
2018,04,26,11,04,18.20
2018,04,26,11,05,18.20
2018,04,26,11,06,18.20
2018,04,26,11,07,18.10
2018,04,26,11,08,18.20
2018,04,26,11,09,18.20
2018,04,26,11,10,18.20
2018,04,26,11,11,18.20
2018,04,26,11,12,18.20
2018,04,26,11,13,18.10
2018,04,26,11,14,18.10
2018,04,26,11,15,18.10
2018,04,26,11,16,18.10
2018,04,26,11,17,18.10
2018,04,26,11,18,18.10
2018,04,26,11,19,18.10
2018,04,26,11,20,18.10
2018,04,26,11,21,18.20
2018,04,26,11,22,18.20
2018,04,26,11,23,18.20
2018,04,26,11,24,18.30
2018,04,26,11,25,18.30
2018,04,26,11,26,18.30
2018,04,26,11,27,18.30
2018,04,26,11,28,18.30
2018,04,26,11,29,18.30
2018,04,26,11,30,18.30
2018,04,26,11,31,18.30
2018,04,26,11,32,18.30
2018,04,26,11,33,18.30
2018,04,26,11,34,18.30
2018,04,26,11,35,18.30
2018,04,26,11,36,18.40
2018,04,26,11,37,18.40
2018,04,26,11,38,18.40
2018,04,26,11,39,18.50
2018,04,26,11,40,18.50
2018,04,26,11,41,18.60
2018,04,26,11,42,18.70
2018,04,26,11,43,18.70
2018,04,26,11,44,18.70
2018,04,26,11,45,18.70
2018,04,26,11,46,18.70
2018,04,26,11,47,18.80
2018,04,26,11,48,18.80
2018,04,26,11,49,18.80
2018,04,26,11,50,18.90
2018,04,26,11,51,18.90
2018,04,26,11,52,18.90
2018,04,26,11,53,18.90
2018,04,26,11,54,19.00
2018,04,26,11,55,19.10
2018,04,26,11,56,19.10
2018,04,26,11,57,19.20
2018,04,26,11,58,19.20
2018,04,26,11,59,19.20
2018,04,26,12,00,19.20
2018,04,26,12,01,19.20
2018,04,26,12,02,19.20
2018,04,26,12,03,19.20
2018,04,26,12,04,19.20
2018,04,26,12,05,19.20
2018,04,26,12,06,19.20
2018,04,26,12,07,19.20
2018,04,26,12,08,19.20
2018,04,26,12,09,19.20
2018,04,26,12,10,19.30
2018,04,26,12,11,19.50
2018,04,26,12,12,19.70
2018,04,26,12,13,19.80
2018,04,26,12,14,19.90
2018,04,26,12,15,20.10
2018,04,26,12,16,20.20
2018,04,26,12,17,20.20
2018,04,26,12,18,20.30
2018,04,26,12,19,20.20
2018,04,26,12,20,20.10
2018,04,26,12,21,20.00
2018,04,26,12,22,19.90
2018,04,26,12,23,19.90
2018,04,26,12,24,19.90
2018,04,26,12,25,19.90
2018,04,26,12,26,19.90
2018,04,26,12,27,20.00
2018,04,26,12,28,20.10
2018,04,26,12,29,20.10
2018,04,26,12,30,20.20
2018,04,26,12,31,20.20
2018,04,26,12,32,20.10
2018,04,26,12,33,20.10
2018,04,26,12,34,20.10
2018,04,26,12,35,20.00
2018,04,26,12,36,20.10
2018,04,26,12,37,20.10
2018,04,26,12,38,20.20
2018,04,26,12,39,20.30
2018,04,26,12,40,20.30
2018,04,26,12,41,20.40
2018,04,26,12,42,20.40
2018,04,26,12,43,20.50
2018,04,26,12,44,20.50
2018,04,26,12,45,20.50
2018,04,26,12,46,20.50
2018,04,26,12,47,20.50
2018,04,26,12,48,20.50
2018,04,26,12,49,20.50
2018,04,26,12,50,20.40
2018,04,26,12,51,20.50
2018,04,26,12,52,20.50
2018,04,26,12,53,20.60
2018,04,26,12,54,20.60
2018,04,26,12,55,20.50
2018,04,26,12,56,20.50
2018,04,26,12,57,20.50
2018,04,26,12,58,20.60
2018,04,26,12,59,20.60
2018,04,26,13,00,20.60
2018,04,26,13,01,20.60
2018,04,26,13,02,20.60
2018,04,26,13,03,20.70
2018,04,26,13,04,20.70
2018,04,26,13,05,20.80
2018,04,26,13,06,20.80
2018,04,26,13,07,20.90
2018,04,26,13,08,20.90
2018,04,26,13,09,20.90
2018,04,26,13,10,20.90
2018,04,26,13,11,20.80
2018,04,26,13,12,20.70
2018,04,26,13,13,20.70
2018,04,26,13,14,20.70
2018,04,26,13,15,20.60
2018,04,26,13,16,20.50
2018,04,26,13,17,20.50
2018,04,26,13,18,20.40
2018,04,26,13,19,20.30
2018,04,26,13,20,20.30
2018,04,26,13,21,20.20
2018,04,26,13,22,20.10
2018,04,26,13,23,20.10
2018,04,26,13,24,20.00
2018,04,26,13,25,19.90
2018,04,26,13,26,19.90
2018,04,26,13,27,20.00
2018,04,26,13,28,20.10
2018,04,26,13,29,20.10
2018,04,26,13,30,20.10
2018,04,26,13,31,20.20
2018,04,26,13,32,20.20
2018,04,26,13,33,20.20
2018,04,26,13,34,20.20
2018,04,26,13,35,20.20
2018,04,26,13,36,20.20
2018,04,26,13,37,20.20
2018,04,26,13,38,20.30
2018,04,26,13,39,20.40
2018,04,26,13,40,20.50
2018,04,26,13,41,20.50
2018,04,26,13,42,20.50
2018,04,26,13,43,20.50
2018,04,26,13,44,20.50
2018,04,26,13,45,20.60
2018,04,26,13,46,20.70
2018,04,26,13,47,20.80
2018,04,26,13,48,20.90
2018,04,26,13,49,20.90
2018,04,26,13,50,21.00
2018,04,26,13,51,21.10
2018,04,26,13,52,21.10
2018,04,26,13,53,21.10
2018,04,26,13,54,21.10
2018,04,26,13,55,21.20
2018,04,26,13,56,21.20
2018,04,26,13,57,21.30
2018,04,26,13,58,21.40
2018,04,26,13,59,21.50
2018,04,26,14,00,21.50
2018,04,26,14,01,21.60
2018,04,26,14,02,21.50
2018,04,26,14,03,21.50
2018,04,26,14,04,21.50
2018,04,26,14,05,21.60
2018,04,26,14,06,21.70
2018,04,26,14,07,21.80
2018,04,26,14,08,21.80
2018,04,26,14,09,21.80
2018,04,26,14,10,21.80
2018,04,26,14,11,21.70
2018,04,26,14,12,21.50
2018,04,26,14,13,21.30
2018,04,26,14,14,21.30
2018,04,26,14,15,21.30
2018,04,26,14,16,21.30
2018,04,26,14,17,21.20
2018,04,26,14,18,21.20
2018,04,26,14,19,21.20
2018,04,26,14,20,21.30
2018,04,26,14,21,21.30
2018,04,26,14,22,21.30
2018,04,26,14,23,21.40
2018,04,26,14,24,21.50
2018,04,26,14,25,21.60
2018,04,26,14,26,21.70
2018,04,26,14,27,21.80
2018,04,26,14,28,21.90
2018,04,26,14,29,21.90
2018,04,26,14,30,21.80
2018,04,26,14,31,21.90
2018,04,26,14,32,21.80
2018,04,26,14,33,21.80
2018,04,26,14,34,21.80
2018,04,26,14,35,21.80
2018,04,26,14,36,21.90
2018,04,26,14,37,21.90
2018,04,26,14,38,22.00
2018,04,26,14,39,22.10
2018,04,26,14,40,22.10
2018,04,26,14,41,22.10
2018,04,26,14,42,22.10
2018,04,26,14,43,22.00
2018,04,26,14,44,22.00
2018,04,26,14,45,21.90
2018,04,26,14,46,21.90
2018,04,26,14,47,21.80
2018,04,26,14,48,21.80
2018,04,26,14,49,21.70
2018,04,26,14,50,21.60
2018,04,26,14,51,21.50
2018,04,26,14,52,21.40
2018,04,26,14,53,21.40
2018,04,26,14,54,21.40
2018,04,26,14,55,21.40
2018,04,26,14,56,21.50
2018,04,26,14,57,21.60
2018,04,26,14,58,21.80
2018,04,26,14,59,21.90
2018,04,26,15,00,22.00
2018,04,26,15,01,22.10
2018,04,26,15,02,22.20
2018,04,26,15,03,22.20
2018,04,26,15,04,22.10
2018,04,26,15,05,22.10
2018,04,26,15,06,22.10
2018,04,26,15,07,22.10
2018,04,26,15,08,22.10
2018,04,26,15,09,22.10
2018,04,26,15,10,22.10
2018,04,26,15,11,22.00
2018,04,26,15,12,21.90
2018,04,26,15,13,21.90
2018,04,26,15,14,21.90
2018,04,26,15,15,21.90
2018,04,26,15,16,22.00
2018,04,26,15,17,22.00
2018,04,26,15,18,22.10
2018,04,26,15,19,22.20
2018,04,26,15,20,22.30
2018,04,26,15,21,22.30
2018,04,26,15,22,22.30
2018,04,26,15,23,22.40
2018,04,26,15,24,22.40
2018,04,26,15,25,22.40
2018,04,26,15,26,22.40
2018,04,26,15,27,22.50
2018,04,26,15,28,22.50
2018,04,26,15,29,22.50
2018,04,26,15,30,22.50
2018,04,26,15,31,22.50
2018,04,26,15,32,22.50
2018,04,26,15,33,22.50
2018,04,26,15,34,22.60
2018,04,26,15,35,22.60
2018,04,26,15,36,22.60
2018,04,26,15,37,22.60
2018,04,26,15,38,22.60
2018,04,26,15,39,22.50
2018,04,26,15,40,22.40
2018,04,26,15,41,22.40
2018,04,26,15,42,22.30
2018,04,26,15,43,22.30
2018,04,26,15,44,22.30
2018,04,26,15,45,22.30
2018,04,26,15,46,22.30
2018,04,26,15,47,22.20
2018,04,26,15,48,22.20
2018,04,26,15,49,22.20
2018,04,26,15,50,22.30
2018,04,26,15,51,22.30
2018,04,26,15,52,22.40
2018,04,26,15,53,22.40
2018,04,26,15,54,22.40
2018,04,26,15,55,22.50
2018,04,26,15,56,22.50
2018,04,26,15,57,22.60
2018,04,26,15,58,22.60
2018,04,26,15,59,22.60
2018,04,26,16,00,22.60
2018,04,26,16,01,22.60
2018,04,26,16,02,22.60
2018,04,26,16,03,22.60
2018,04,26,16,04,22.60
2018,04,26,16,05,22.60
2018,04,26,16,06,22.70
2018,04,26,16,07,22.70
2018,04,26,16,08,22.60
2018,04,26,16,09,22.50
2018,04,26,16,10,22.40
2018,04,26,16,11,22.30
2018,04,26,16,12,22.40
2018,04,26,16,13,22.50
2018,04,26,16,14,22.60
2018,04,26,16,15,22.60
2018,04,26,16,16,22.70
2018,04,26,16,17,22.70
2018,04,26,16,18,22.80
2018,04,26,16,19,22.80
2018,04,26,16,20,22.80
2018,04,26,16,21,22.80
2018,04,26,16,22,22.70
2018,04,26,16,23,22.70
2018,04,26,16,24,22.60
2018,04,26,16,25,22.50
2018,04,26,16,26,22.40
2018,04,26,16,27,22.40
2018,04,26,16,28,22.40
2018,04,26,16,29,22.40
2018,04,26,16,30,22.40
2018,04,26,16,31,22.40
2018,04,26,16,32,22.50
2018,04,26,16,33,22.50
2018,04,26,16,34,22.60
2018,04,26,16,35,22.70
2018,04,26,16,36,22.70
2018,04,26,16,37,22.70
2018,04,26,16,38,22.70
2018,04,26,16,39,22.60
2018,04,26,16,40,22.60
2018,04,26,16,41,22.60
2018,04,26,16,42,22.50
2018,04,26,16,43,22.50
2018,04,26,16,44,22.60
2018,04,26,16,45,22.60
2018,04,26,16,46,22.60
2018,04,26,16,47,22.60
2018,04,26,16,48,22.60
2018,04,26,16,49,22.60
2018,04,26,16,50,22.60
2018,04,26,16,51,22.60
2018,04,26,16,52,22.60
2018,04,26,16,53,22.60
2018,04,26,16,54,22.60
2018,04,26,16,55,22.60
2018,04,26,16,56,22.70
2018,04,26,16,57,22.60
2018,04,26,16,58,22.60
2018,04,26,16,59,22.60
2018,04,26,17,00,22.60
2018,04,26,17,01,22.60
2018,04,26,17,02,22.70
2018,04,26,17,03,22.70
2018,04,26,17,04,22.80
2018,04,26,17,05,22.80
2018,04,26,17,06,22.80
2018,04,26,17,07,22.80
2018,04,26,17,08,22.80
2018,04,26,17,09,22.80
2018,04,26,17,10,22.80
2018,04,26,17,11,22.70
2018,04,26,17,12,22.60
2018,04,26,17,13,22.60
2018,04,26,17,14,22.70
2018,04,26,17,15,22.70
2018,04,26,17,16,22.70
2018,04,26,17,17,22.80
2018,04,26,17,18,22.80
2018,04,26,17,19,22.90
2018,04,26,17,20,22.90
2018,04,26,17,21,22.90
2018,04,26,17,22,22.90
2018,04,26,17,23,22.90
2018,04,26,17,24,23.00
2018,04,26,17,25,23.00
2018,04,26,17,26,23.00
2018,04,26,17,27,22.90
2018,04,26,17,28,22.90